Simultaneous Nadir Overpasses (SNOs) Predictions

Prediction of SNOs between GOES-14 and NPP Satellite Orbit:

Table of predicted SNOs for the next 14.0 days since TLE Epoch: 11/27/2021
Index Date Time (GOES-14) GOES-14 Lat,Lon NPP Lat,Lon Distance(km) Time Diff (sec)
1 11/27/2021 08:34:24 0.06,-104.43 0.55,-106.75 263.95 80
2 11/28/2021 08:12:58 0.08,-104.42 -0.41,-102.20 252.38 80
3 11/29/2021 20:34:52 -0.05,-104.16 -0.80,-107.50 380.63 80
4 11/30/2021 20:18:46 -0.06,-104.17 0.23,-102.97 137.35 80
5 12/02/2021 08:40:34 0.04,-104.45 0.89,-108.25 432.64 80
6 12/03/2021 08:19:07 0.06,-104.44 -0.08,-103.70 83.63 80
7 12/05/2021 20:22:16 -0.05,-104.15 -0.10,-104.47 35.17 80
8 12/06/2021 20:06:10 -0.06,-104.16 0.87, -99.92 482.32 80
9 12/08/2021 08:27:58 0.04,-104.45 0.18,-105.22 87.11 80
10 12/09/2021 08:06:32 0.05,-104.44 -0.79,-100.67 429.15 80
11 12/10/2021 20:28:26 -0.02,-104.14 -0.41,-105.97 207.68 80
